Morehead City, NC (28557)

8:15 PM EST on December 03, 2016 (GMT -0500)
North shore 1 | | Change Station

Elev 3 ft 34.71 °N, 76.74 °W | Updated 9 minutes ago

Clear
Clear
49.9 °F
Feels Like 50 °F
N
0.0
Wind Variable Wind from North
Gusts 6.0 mph

Today
High -- | Low -- °F
--% Chance of Precip.
Yesterday
High -- | Low -- °F
Precip. -- in
Pressure 30.26 in
Visibility 10.0 miles
Clouds Clear
Windchill 50 °F
Dew Point 38 °F
Humidity 65%
Rainfall 0.00 in
Snow Depth Not available.
6:58 AM 4:55 PM
Waxing Crescent, 18% visible
METAR KMRH 040058Z AUTO 22006KT 10SM CLR 07/02 A3025 RMK AO2 SLP245 T00670022 TSNO $
Pressure 30.26 in
Visibility 10.0 miles
Clouds Clear
Windchill 50 °F
Dew Point 38 °F
Humidity 65%
Rainfall 0.00 in
Snow Depth Not available.
6:58 AM 4:55 PM
Waxing Crescent, 18% visible
METAR KMRH 040058Z AUTO 22006KT 10SM CLR 07/02 A3025 RMK AO2 SLP245 T00670022 TSNO $

10-Day Weather Forecast

Almanac

Astronomy

Dec. 03, 2016 Rise Set
Actual Time
Civil Twilight
Nautical Twilight
Astronomical Twilight
Moon
Length of Visible Light
Length of Day
Tomorrow will be .
, % of the Moon is Illuminated

Today's Extremes

State Highs State Lows

Community

WunderPhotos

Upload Photos

1,955,555 photos uploaded!

WunderBlog® & News

Nearby

Air Quality

  Air Quality AQ Index Pollutant
Not available.

Snow Depth

Station Depth Elevation

Earthquake Activity

City Distance Mag. Time & Date
Minimum magnitude displayed is 2.5.

Coastal Water Temperatures

Place Temperature

Stations

Nearby Weather Stations

Station Location Temp. Windchill Dew Point Humidity Wind Precip. Elev Updated Type
                   

Watches & Warnings

There are currently no watches in effect.